Location: Forst
(46.9333°N, 15.4333°E)
Time: 05:22:55
(UTC+00:00)

Cosmos 44 - Pass Details

Date: 01 December 2020
Orbit: 574 x 788 km, 65.1° (Epoch: 18 January)

Event Time Altitude Azimuth Distance (km) Brightness Sun altitude
Rises 16:00:36 0° 321° (NW) 3,203 6.9 -8.3°
Reaches altitude 10° 16:02:58 10° 319° (NW) 2,300 6.2 -8.7°
Maximum altitude 16:08:14 67° 238° (WSW) 845 4.0 -9.5°
Drops below altitude 10° 16:13:36 10° 157° (SSE) 2,342 6.0 -10.3°
Sets 16:16:02 0° 154° (SSE) 3,266 6.7 -10.7°
